{"data":{"norad_id":66010,"epoch":"2026-09-20T12:10:57.058176Z","epoch_age_seconds":102441,"freshness":"FRESH","line1":"1 66010U 25232F   26263.50760484  .00017513  00000+0  52756-3 0  9994","line2":"2 66010  53.1586 275.4128 0001079  74.2380 285.8742 15.34440322 53308","mean_motion":15.34440322,"eccentricity":0.0001079,"inclination_deg":53.1586,"raan_deg":275.4128,"arg_perigee_deg":74.238,"mean_anomaly_deg":285.8742,"bstar":0.00052756,"rev_number":5330,"period_min":93.845291951341,"perigee_km":461.84528361918,"apogee_km":463.32151108093,"semimajor_km":6840.7203973501,"source":"CELESTRAK","updated_at":"2026-09-21T09:00:35.769119Z"}}